This is the latest recevied weather packets stored in our database for station/object K4M9. If no packets are shown the sender has not sent any weather packets the latest 10 day(s).
| Time | Temp. | Humidity | Pressure | Rain* | Wind** | Luminosity | Snow |
|---|---|---|---|---|---|---|---|
| 1777485208 | 20° C | 68% | 1016.6 hPa | - | - | - | - |
| 1777484609 | 20° C | 68% | 1016.6 hPa | - | - | - | - |
| 1777484008 | 20° C | 72% | 1016.6 hPa | - | - | - | - |
| 1777483406 | 20° C | 72% | 1016.6 hPa | - | - | - | - |
| 1777482807 | 20° C | 64% | 1016.9 hPa | - | - | - | - |
| 1777482208 | 20° C | 64% | 1016.9 hPa | - | - | - | - |
| 1777481610 | 18.89° C | 72% | 1017.3 hPa | - | - | - | - |
| 1777481007 | 18.89° C | 72% | 1017.3 hPa | - | - | - | - |
| 1777480411 | 18.89° C | 72% | 1017.3 hPa | - | - | - | - |
| 1777479809 | 18.89° C | 72% | 1017.3 hPa | - | - | - | - |
| 1777479206 | 18.89° C | 72% | 1017.3 hPa | - | - | - | - |
| 1777478609 | 18.89° C | 72% | 1017.3 hPa | - | - | - | - |
| 1777478009 | 17.78° C | 77% | 1017.3 hPa | - | - | - | - |
| 1777477407 | 17.78° C | 77% | 1017.3 hPa | - | - | - | - |
| 1777476812 | 16.67° C | 82% | 1016.9 hPa | - | - | - | - |
| 1777476210 | 16.67° C | 82% | 1016.9 hPa | - | - | - | - |
| 1777475607 | 16.67° C | 82% | 1016.9 hPa | - | - | - | - |
| 1777475009 | 16.67° C | 82% | 1016.9 hPa | - | - | - | - |
| 1777474408 | 15.56° C | 87% | 1016.9 hPa | - | - | - | - |
| 1777473810 | 15.56° C | 87% | 1016.9 hPa | - | - | - | - |
| 1777473218 | 15.56° C | 93% | 1016.9 hPa | - | - | - | - |
| 1777472610 | 15.56° C | 93% | 1016.9 hPa | - | - | - | - |
| 1777472007 | 15.56° C | 93% | 1016.6 hPa | - | - | - | - |
| 1777471406 | 15.56° C | 93% | 1016.6 hPa | - | - | - | - |
| 1777470806 | 15.56° C | 93% | 1016.3 hPa | - | - | - | - |
* Rain since midnight (hover to see other rain measurements)
** Current wind speed in m/s (hover to see current wind gust speed)